Location: Corte Polfranceschi
(45.3333°N, 11.1833°E)
Time: 12:17:17
(UTC+00:00)

Daily predictions for brighter satellites

Satellite Brightness Start Highest point End
(mag) Time Altitude Azimuth Time Altitude Azimuth Time Altitude Azimuth
Cosmos 2360 Rocket 4.3 19:19:46 10° N 19:22:38 14° NE 19:25:31 10° ENE
Cosmos 1633 3.0 19:19:25 10° SSE 19:22:49 41° E 19:26:14 10° NNE
Cosmos 1606 2.7 19:27:24 10° N 19:31:11 69° E 19:34:57 10° SSE
Nadezhda 4 Rocket 4.2 19:25:24 10° SSE 19:31:21 54° E 19:37:24 10° NNE
Cosmos 1242 Rocket 4.2 19:30:27 10° NNW 19:33:44 34° W 19:36:57 10° SSW
Landsat 7 4.0 19:32:46 10° SSE 19:37:26 60° ENE 19:42:08 10° N
SPOT 3 Rocket 3.8 19:34:03 10° SSE 19:39:09 57° ENE 19:44:17 10° N
ISS -3.5 19:36:31 10° WNW 19:39:53 65° NNE 19:42:58 12° ESE
Cosmos 1825 4.2 19:36:40 10° SW 19:40:05 32° WNW 19:43:29 10° N
IGS 5A 3.5 19:36:32 10° SSE 19:40:39 71° ENE 19:44:48 10° N
BREEZE-M DEB (TANK) 4.0 19:31:10 10° W 19:43:38 62° NNW 19:47:12 10° ENE
Cosmos 2058 4.0 19:40:47 10° SSW 19:44:50 48° WNW 19:48:55 10° N
Cosmos 1980 Rocket 2.3 19:39:25 10° NNW 19:45:03 79° WSW 19:50:42 10° SSE
Cosmos 2369 4.2 19:39:48 10° NNW 19:45:20 58° WSW 19:50:51 10° S
MetOp-B 4.4 19:40:21 10° SSE 19:45:35 57° ENE 19:50:50 10° N
CZ-2C R/B 4.3 19:43:29 10° NNE 19:47:39 35° E 19:51:43 10° SSE
Cosmos 2221 3.3 19:45:53 10° NNW 19:50:04 53° W 19:54:17 10° S
RESURS DK-1 3.0 19:46:27 10° SW 19:50:34 62° WNW 19:54:42 10° NNE
ERBS 4.3 19:48:46 10° WNW 19:51:14 20° SW 19:53:40 10° S
USA 245 4.3 19:47:53 12° SE 19:52:22 44° ENE 19:56:23 10° N
BREEZE-M DEB (TANK) 3.2 19:51:02 10° SW 19:54:24 66° SE 20:05:39 10° ENE
Meteor 2-15 4.5 19:48:53 10° N 19:54:56 66° ENE 20:00:51 10° SSE
Cosmos 2322 Rocket 3.3 19:50:39 10° N 19:55:41 32° NE 19:59:58 13° ESE
Cosmos 304 Rocket 4.0 19:55:36 10° NNW 20:00:20 56° ENE 20:03:55 17° SE
BREEZE-M DEB (TANK) 3.6 19:57:34 10° WNW 20:00:48 87° SSW 20:09:24 13° ESE
Cosmos 1538 Rocket 3.9 19:56:01 10° SSW 20:01:14 85° ESE 20:06:27 10° NNE
Cosmos 1933 3.6 19:57:40 10° N 20:01:39 51° ENE 20:04:32 17° SSE
Resurs 01 Rocket 1.9 19:58:54 10° S 20:03:19 69° WSW 20:07:46 10° NNW
Cosmos 2151 2.9 20:01:20 10° S 20:05:33 71° E 20:09:48 10° NNE
ERS-2 3.0 20:02:18 10° N 20:05:52 51° WNW 20:09:23 10° SSW
Cosmos 2098 Rocket 2.9 20:03:52 10° SSW 20:06:53 59° W 20:10:28 10° N
Gbstr 26 Del rocket 3.0 20:06:18 10° WNW 20:09:59 60° NNE 20:12:57 17° ESE
Meteor 2-3 Rocket 3.8 20:05:08 10° S 20:10:41 62° E 20:16:21 10° NNE
CARTOSAT-1 3.9 20:09:29 19° SE 20:12:21 50° ENE 20:16:33 10° N
Meteor 2-15 Rocket 4.4 20:07:01 10° N 20:13:07 72° E 20:18:11 15° SSE
Cosmos 2219 Rocket 4.3 20:13:38 10° N 20:16:40 15° NE 20:19:43 10° ENE
Ariane Rocket 4.4 20:13:10 10° SSW 20:17:49 36° W 20:22:30 10° NNW
SL-16 R/B 2.3 20:18:47 10° NNW 20:24:26 64° ENE 20:28:03 23° SE
Cosmos 1782 2.9 20:24:07 10° N 20:28:07 60° E 20:30:02 28° SSE
Cosmos 371 Rocket 4.2 20:24:20 10° NNW 20:28:54 45° WSW 20:32:51 13° S
ARIANE 5 R/B 2.7 20:26:51 24° SSE 20:29:27 64° ENE 20:33:52 10° N
Cosmos 1271 Rocket 2.8 20:30:41 10° NNW 20:34:41 82° W 20:36:55 25° S
SPOT 1/Viking Rocket 3.9 20:31:18 15° S 20:35:38 62° WSW 20:40:50 10° NNW
USA 276 2.0 20:34:28 10° WNW 20:37:39 85° NNE 20:38:32 43° ESE
Cosmos 2195 Rocket 4.5 20:31:42 10° S 20:37:50 84° W 20:43:59 10° N
BREEZE-M DEB (TANK) 2.9 20:35:23 10° WNW 20:38:38 64° SSW 20:43:14 23° SE
Cosmos 1766 Rocket 3.6 20:37:42 27° SSE 20:39:57 59° E 20:44:16 10° NNE
Cosmos 1151 Rocket 3.0 20:37:22 10° N 20:41:44 68° E 20:43:40 32° SSE
ATLAS 5 CENTAUR R/B 4.3 20:39:26 10° NNW 20:43:05 18° NNE 20:47:08 10° ENE
Cosmos 1328 Rocket 3.7 20:41:34 10° N 20:45:58 57° ENE 20:47:39 34° SE
Cosmos 923 Rocket 4.0 20:42:16 10° SSW 20:47:36 87° WNW 20:53:00 10° NNE
Terra 2.0 20:47:56 32° SE 20:50:01 60° ENE 20:54:43 10° N
ATLAS 3B R/B 3.6 20:44:56 10° NW 20:51:36 43° WSW 20:56:42 18° S
SPOT 5 2.5 20:50:48 33° SSE 20:52:42 88° ENE 20:57:07 10° NNW
USA 267 3.7 20:48:22 10° ENE 20:54:20 37° SE 20:59:02 16° S
Cosmos 2082 Rocket 4.4 20:51:56 10° WSW 20:56:38 26° NW 21:01:22 10° N
Cosmos 2056 Rocket 3.6 20:54:38 10° NNW 20:59:59 64° ENE 21:02:09 35° SE
NOSS 2-1 (C) 3.3 21:00:51 44° E 21:00:51 44° E 21:03:28 10° NE
BREEZE-M DEB (TANK) 3.3 21:01:11 10° WNW 21:03:04 30° N 21:03:12 29° N
ERS-1 Rocket 3.0 21:00:35 30° S 21:03:06 76° WSW 21:08:10 10° NNW
SL-27 R/B 2.8 21:06:23 48° E 21:06:23 48° E 21:09:38 10° NNE
Meteor 2-21 4.4 21:02:38 25° S 21:06:26 78° E 21:12:36 10° NNE
Cosmos 2360 Rocket 2.3 21:02:12 10° NNW 21:07:49 64° ENE 21:10:08 35° SE
NOSS 2-1 (D) 2.9 21:08:18 59° E 21:08:18 59° E 21:11:12 10° NE
GP-B 4.2 21:09:04 10° NNW 21:13:14 41° W 21:16:14 17° SW
Cosmos 1833 4.3 21:14:09 35° SSE 21:16:21 56° ESE 21:22:00 10° NNE
ISS -1.9 21:13:48 10° W 21:15:56 21° WSW 21:15:56 21° WSW
Cosmos 2333 Rocket 3.0 21:13:00 10° NNW 21:18:20 40° NE 21:20:38 28° ESE
Meteor 1-10 Rocket 4.1 21:15:20 10° N 21:20:55 76° ENE 21:22:51 42° SSE
Cosmos 1371 Rocket 4.1 21:16:05 10° NNW 21:21:28 78° WSW 21:23:22 41° S
Cosmos 2112 Rocket 4.3 21:17:49 15° SSW 21:22:17 68° WNW 21:27:33 10° NNE
Cosmos 1812 3.0 21:18:31 10° NNW 21:22:20 63° W 21:23:03 51° SW
Cosmos 1680 Rocket 4.0 21:17:36 10° SW 21:22:48 58° WNW 21:28:01 10° NNE
Cosmos 1500 Rocket 3.9 21:22:35 45° ESE 21:22:50 45° E 21:27:05 10° NNE
Cosmos 220 Rocket 4.3 21:20:34 10° NNW 21:24:50 58° WSW 21:25:50 45° SSW
Okean 3 Rocket 4.5 21:24:58 22° SW 21:27:34 46° WNW 21:31:57 10° N
USA 234 4.1 21:22:42 12° E 21:28:35 47° NNE 21:34:48 10° NW
Cosmos 2322 4.4 21:23:11 10° NNW 21:28:42 46° ENE 21:30:49 32° ESE
Cosmos 292 Rocket 3.7 21:27:56 10° NNW 21:32:43 74° ENE 21:33:40 55° SE
Meteor 2-16 Rocket 4.3 21:35:25 37° S 21:37:58 87° E 21:44:06 10° N
Cosmos 2237 Rocket 4.3 21:34:42 10° N 21:38:36 18° NE 21:42:14 11° E
Cosmos 2322 Rocket 2.9 21:34:33 10° NW 21:39:52 44° WSW 21:41:46 33° SSW
Cosmos 1408 Rocket 3.8 21:40:12 44° SW 21:41:22 62° W 21:45:42 10° N
Cosmos 1743 Rocket 3.4 21:42:22 68° SE 21:42:43 73° E 21:47:10 10° NNE
Cosmos 2285 Rocket 4.4 21:39:22 10° NNW 21:45:33 54° ENE 21:47:43 37° ESE
IRIDIUM 106 4.4 21:42:11 10° N 21:47:24 64° E 21:48:18 54° SE
Cosmos 2315 Rocket 4.0 21:44:03 10° N 21:50:22 69° E 21:52:17 46° SE
Sich 1 3.8 21:51:50 38° ENE 21:51:50 38° ENE 21:55:27 10° NNE
Cosmos 2084 4.3 21:48:52 15° WSW 21:52:02 46° NW 21:56:05 10° NNE
Cosmos 2266 Rocket 4.0 21:53:30 40° SSW 21:55:53 80° W 22:02:09 10° N
Gbstr 26 Del rocket 4.4 21:53:14 10° W 21:55:27 24° WSW 21:55:27 24° WSW
Cosmos 1048 Rocket 4.2 21:59:25 50° ESE 21:59:25 50° ESE 22:04:22 10° NNE
Cosmos 2219 Rocket 2.2 21:56:08 10° NNW 22:01:44 69° ENE 22:02:58 52° ESE
BREEZE-M DEB (TANK) 4.5 21:50:41 10° SW 22:05:57 57° SSE 22:10:34 10° E
Cosmos 2228 Rocket 2.9 22:01:35 10° N 22:06:01 89° E 22:06:05 87° SSE
NOSS 2-1 (E) 4.5 22:05:22 29° WNW 22:06:10 33° NW 22:09:22 10° NNE
SL-16 R/B 4.0 22:03:56 10° NW 22:08:00 21° W 22:09:55 17° SW
COSMOS 2455 2.7 22:09:10 50° SSW 22:10:49 80° ESE 22:16:52 10° NE
NOSS 3-1 (C) 4.0 22:03:33 10° NW 22:11:07 84° SW 22:14:30 42° SSE
Cosmos 2333 4.1 22:05:42 10° NNW 22:11:17 73° WSW 22:12:13 60° S
COSMOS 2428 2.7 22:10:46 10° NNW 22:16:29 73° ENE 22:17:35 57° SE
Cosmos 1515 4.4 22:17:50 10° N 22:20:48 49° NNE 22:20:48 49° NNE
Spot 4 3.7 22:21:45 80° S 22:22:00 86° WSW 22:26:52 10° NNW
USA 229 DEB 3.9 22:17:57 10° NW 22:25:19 80° NE 22:28:16 42° SE
USA 229 3.9 22:18:03 10° NW 22:25:25 80° NE 22:28:23 42° SE
Terra 3.9 22:26:49 15° WSW 22:28:09 17° W 22:31:11 10° NW
ATLAS 5 CENTAUR R/B 2.6 22:23:10 10° NNW 22:28:40 62° NE 22:30:39 42° ESE
COSMOS 2487 3.9 22:31:49 35° NNW 22:31:49 35° NNW 22:34:09 10° N
Cosmos 1452 Rocket 3.6 22:27:17 10° NNW 22:32:28 62° WSW 22:32:49 60° SW
Cosmos 1707 Rocket 3.7 22:28:17 10° N 22:32:18 70° NNE 22:32:18 70° NNE
ALOS 2 2.7 22:33:57 71° NE 22:33:57 71° NE 22:38:06 10° N
USA 267 3.4 22:31:08 10° NE 22:37:40 74° NW 22:44:10 10° WSW
Nadezhda 1 Rocket 4.5 22:36:43 10° N 22:42:58 51° ENE 22:44:26 43° ESE
Cosmos 1666 4.5 22:44:25 25° NE 22:44:25 25° NE 22:46:36 10° NNE
SL-08 ROCKET BODY 4.3 22:44:13 63° SSE 22:45:10 77° E 22:51:19 10° N
NOSS 3-1 (A) 4.0 22:38:14 10° NW 22:45:49 83° SW 22:48:48 46° SSE
Cosmos 2360 Rocket 3.8 22:47:15 10° NW 22:51:16 20° W 22:51:53 20° WSW
Cosmos 1110 Rocket 4.0 22:53:14 10° NNW 22:58:34 70° WSW 22:58:40 70° WSW
Cosmos 1980 3.9 22:54:42 10° NNW 23:00:22 65° ENE 23:01:19 55° ESE
Cosmos 2333 Rocket 3.1 22:57:27 10° NW 23:02:30 34° WSW 23:02:38 34° WSW
Cosmos 1331 Rocket 4.0 22:58:46 10° NNW 23:03:58 70° WSW 23:03:58 70° WSW
USA 234 3.1 23:10:02 57° SSE 23:11:23 72° SW 23:17:58 10° NW
Cosmos 1340 Rocket 4.1 23:13:35 33° NE 23:13:35 33° NE 23:16:10 10° NNE
Nimbus 7 Rocket 4.3 23:07:03 10° NNE 23:13:06 90° WSW 23:14:02 66° SSW
NOSS 0 Rocket 3.8 23:09:05 10° NNW 23:15:18 72° WSW 23:16:01 65° SSW
Cosmos 2297 Rocket 2.2 23:17:11 62° ESE 23:17:17 62° ESE 23:22:53 10° NNE
Okean 1-7 3.9 23:15:14 10° N 23:18:54 42° ENE 23:18:54 42° ENE
Lacrosse 5 2.3 23:21:59 50° E 23:21:59 50° E 23:25:59 10° NE
Cosmos 2237 Rocket 2.0 23:17:46 10° NNW 23:23:29 89° NE 23:24:02 74° SSE
Cosmos 2084 Rocket 4.0 23:20:45 10° NW 23:24:08 56° NNW 23:24:08 56° NNW
Cosmos 2242 Rocket 4.1 23:21:07 10° N 23:25:08 51° ENE 23:25:08 51° ENE
NOSS 2-2 (E) 4.5 23:20:51 10° NW 23:26:21 82° NE 23:28:32 47° SE
Cosmos 1470 Rocket 3.9 23:29:03 60° NNW 23:29:03 60° NNW 23:32:47 10° N
Cosmos 2227 Rocket 2.3 23:28:53 58° ESE 23:28:59 58° ESE 23:34:33 10° NNE
Cosmos 909 Rocket 4.3 23:31:44 53° SSE 23:32:41 58° ESE 23:40:02 10° NE
Cosmos 1633 Rocket 4.1 23:33:06 36° WNW 23:33:06 36° WNW 23:36:57 10° N
Cosmos 1933 Rocket 3.8 23:35:34 70° NNE 23:35:34 70° NNE 23:39:33 10° N
Timation 1 Rocket 4.4 23:41:04 56° SE 23:41:30 58° ESE 23:47:23 10° NE
Meteor 1-11 Rocket 3.8 23:41:19 57° ESE 23:41:47 59° E 23:47:12 10° NNE
Cosmos 2219 Rocket 3.9 23:41:19 10° WNW 23:44:40 18° W 23:44:40 18° W
Cosmos 2263 Rocket 4.2 23:46:36 15° ESE 23:47:26 15° E 23:50:33 10° ENE
NOSS 2-2 (C) 4.4 23:45:07 10° NW 23:50:33 85° SW 23:52:23 52° SSE
Cosmos 1269 Rocket 4.1 23:50:05 60° W 23:50:36 64° WNW 23:55:52 10° NNE
SL-16 R/B 2.7 23:45:15 10° NNW 23:50:50 55° ENE 23:52:42 38° ESE
Cosmos 1992 Rocket 4.1 23:46:11 10° NNW 23:51:25 68° ENE 23:52:06 61° ESE
PSLV R/B 3.8 23:47:27 10° N 23:52:12 70° WNW 23:52:12 70° WNW
Resurs 1-4 Rocket 3.7 23:50:05 10° NE 23:54:16 23° E 23:55:14 22° ESE
